Вернуться в каталог

FENGYUN 1C DEB

АктивенSSO
NORAD 37430·DEBRIS·🇨🇳 China

Запущен May 10, 1999 с Taiyuan Satellite Launch Center

Loading…

Ближайшие Пролёты (ближайшие 24 часа)

TLE

УстаревшееSource: Space-Track

Эпоха: Aug 31, 2026, 16:17 UTC

1 37430U 99025EGY 26243.67911828  .00002422  00000-0  93729-3 0  9994
2 37430  98.7514 324.3541 0017396  28.0460 332.1656 14.30924255654456

Отслеживайте FENGYUN 1C DEB в реальном времени с AllMySat

Download on the App Store